CZ-2C DEB

Satellite information

Favourite Embed

Satellite Type and Status

DEBRISIN ORBIT

Key statistics

Satellite CZ-2C DEB at a glance.

Uptime

3851

Days in orbit

Revolutions

≈ 14.3

Per day

Orbit

SSO

Sun Synchronous Orbit

Inclination

97.9

Latest

Satellite identification and parameters

Extended collection of information and parameters for CZ-2C DEB.

Object identification

Identified? True

Debris? True

Object name: CZ-2C DEB

International designator: 2014-066C

Object number (NORAD): 40288

Object ID (CCSDS): 40288

Country: PEOPLES REPUBLIC OF CHINA (PRC)

Current information (Y/N): Y

RCS size: SMALL

Orbital parameters

Period: 100.71 minutes

Inclination: 97.931 deg

SMA: 7170.396 km

Apoapsis: 908.367 km

Periapsis: 676.155 km

RAAN: 281.9014 deg

Eccentricy: 0.0161924

Argument of periapsis: 323.0904 deg

Mean anomaly: 35.9223 deg

Mean motion: 14.29841883 rev/day

Mean motion (dot): 0.00001495 rev/day2

B* drag term: 0.0005184 1/REarth

Two-line elements (TLE)

Creation date: May 12, 2025, 10:56 p.m.

Reference frame: TEME

Reference center: EARTH

Epoch: May 12, 2025, 8:47 p.m. UTC

TLE line 0: 0 CZ-2C DEB

TLE line 1: 1 40288U 14066C 25132.86625292 .00001495 00000-0 51840-3 0 9992

TLE line 2: 2 40288 97.9310 281.9014 0161924 323.0904 35.9223 14.29841883547044

Live tracking on map

Real-time ground track for satellite CZ-2C DEB.

In-orbit conjunctions

A list of the most updated potential collisions computed for object CZ-2C DEB.

Target Orbit TCA Probability of collision Miss distance Type
CZ-6A DEB LEO 2024-11-02 00:29:06 0.000118132 136.0 (m) DEBRIS
DELTA 1 DEB SSO 2024-10-06 00:44:17 0.0008207712 20.0 (m) DEBRIS
FENGYUN 1C DEB SSO 2024-09-19 14:31:59 0.0001160142 344.0 (m) DEBRIS

Associated space launch

CZ-2C DEB was lifted into orbit during the mission ‘Long March 2C | Shijian 11-08’, on board a Long March 2 space rocket.

The launch took place on Oct. 27, 2014, 6:59 a.m. from Launch Area 4 (SLS-2 / 603).

For more information about the launch, click the button.

Launch to space Long March 2C | Shijian 11-08
Long March 2C | Shijian 11-08

Agency: N/A

Status: Launch Successful

Launch date: Oct. 27, 2014, 6:59 a.m. UTC

Rocket: Long March 2

Launch pad: Launch Area 4 (SLS-2 / 603)

Location: Jiuquan Satellite Launch Center, People's Republic of China

...

Latest news about this satellite

There are no fresh news available about this satellite. Check back as we update our databases every day.


Newsletter sign-up

Weekly statistics, charts and insights to help you stay on top of the space industry.